Starlink 4778

operational
NORAD ID: 53836 Int'l Des: 2022-114 Owner: SPXS Country: US Constellation: starlink
LEOCIRCULAR

About Starlink 4778

Description loading...

Live Position

Loading 3D Globe...

Upcoming Passes

Altitude History

Altitude vs Time

uPlot chart will show altitude changes over time

Two-Line Element Set

1 53836U 22114U 25257.98762184 -.00000272 00000-0 10111-5 0 9992
2 53836 53.2191 3.0828 0001289 94.1959 265.9181 15.08834375166443
Epoch: Sep 14, 2025 • Age: 18 hours

Current Status

Altitude 539.6 km
Velocity 7.60 km/s
Sub-Earth Point 15.71°N, 95.8°W
Launch Date Sep 19, 2022
Age 2.9 years
Type internet

Technical Details

Classification Payload
Mass 305.00 kg
Dry Mass 290.00 kg
Total Mass 305.00 kg
Length 0.20 m
Diameter 2.80 m
Span 9.00 m
Shape Box + pan
Manufacturer SPXS
Bus Type Starlink
Phase Status In Orbit
Owner/State SPXS/US

Large Constellations

Loading constellations...